Weather History for Kerkyra, Greece

Change the Weather History Date:

Monday, December 30, 2013

  Actual Average Record
Temperature  
Mean Temperature 54 °F -  
Max Temperature 63 °F 57 °F 63 °F (2013)
Min Temperature 44 °F 41 °F 33 °F (2006)
Degree Days  
Heating Degree Days 12    
Growing Degree Days 4 (Base 50)    
Moisture  
Dew Point 49 °F    
Average Humidity 92    
Maximum Humidity 100    
Minimum Humidity 69    
Precipitation  
Precipitation 0.00 in 0.17 in - ()
Sea Level Pressure  
Sea Level Pressure 30.10 in    
Wind  
Wind Speed 1 mph ()    
Max Wind Speed 5 mph    
Max Gust Speed -    
Visibility 5.5 miles    
Events Fog    
Averages and records for this station are not official NWS values.
T = Trace of Precipitation, MM = Missing Value Source: Averaged Metar Reports

Daily Weather History Graph

Daily Weather History Graph

Search for Another Location

Airport:

Trip Planner

Search our weather history database for the weather conditions in past years. The results will help you decide how hot, cold, wet, or windy it might be!

Date:

Astronomy

Dec. 30, 2013 Rise Set
Actual Time 8:00 AM EET 5:25 PM EET
Civil Twilight 7:30 AM EET 5:55 PM EET
Nautical Twilight 6:56 AM EET 6:29 PM EET
Astronomical Twilight 6:23 AM EET 7:02 PM EET
Moon 5:30 AM EET (12/30) 3:40 PM EET (12/30)
Length of Visible Light 10h 25m
Length of Day
9h 24m
Waning Crescent, 6% of the Moon is Illuminated
Dec 30
Waning Crescent
Jan 1
New
Jan 8
First Quarter
Jan 16
Full
Jan 24
Last Quarter

Hourly Weather History & Observations

Time (EET) Temp. Windchill Dew Point Humidity Pressure Visibility Wind Dir Wind Speed Gust Speed Precip Events Conditions
12:20 AM 48.2 °F - 46.4 °F 93% 30.09 in 6.2 mi Calm Calm - N/A   Partly Cloudy
12:50 AM 48.2 °F - 46.4 °F 93% 30.09 in 6.2 mi Calm Calm - N/A   Partly Cloudy
1:20 AM 48.2 °F - 46.4 °F 93% 30.09 in 6.2 mi Calm Calm - N/A   Partly Cloudy
1:50 AM 46.4 °F - 46.4 °F 100% 30.09 in 6.2 mi Calm Calm - N/A   Partly Cloudy
2:00 AM 47 °F - 46 °F 95% 30.11 in 6 mi Calm Calm - -   Scattered Clouds
2:20 AM 46.4 °F 45.2 °F 46.4 °F 100% 30.09 in 6.2 mi WNW 3.5 mph - N/A   Partly Cloudy
2:50 AM 46.4 °F - 44.6 °F 93% 30.09 in 6.2 mi Calm Calm - N/A   Partly Cloudy
3:20 AM 46.4 °F 45.2 °F 44.6 °F 93% 30.09 in 6.2 mi WNW 3.5 mph - N/A   Partly Cloudy
3:50 AM 44.6 °F - 44.6 °F 100% 30.09 in 6.2 mi Calm Calm - N/A   Partly Cloudy
4:20 AM 44.6 °F 43.1 °F 44.6 °F 100% 30.09 in 6.2 mi WNW 3.5 mph - N/A   Partly Cloudy
4:50 AM 44.6 °F - 44.6 °F 100% 30.09 in 1.2 mi Calm Calm - N/A   Scattered Clouds
5:00 AM 45 °F - 45 °F 98% 30.11 in 1 mi Calm Calm - -   Mist
5:20 AM 44.6 °F - 44.6 °F 100% 30.09 in 1.2 mi Calm Calm - N/A   Scattered Clouds
5:50 AM 44.6 °F - 44.6 °F 100% 30.09 in 0.5 mi Calm Calm - N/A Fog Fog
6:20 AM 44.6 °F - 44.6 °F 100% 30.09 in 0.5 mi WNW 2.3 mph - N/A Fog Fog
6:50 AM 44.6 °F - 44.6 °F 100% 30.09 in 0.5 mi Calm Calm - N/A Fog Fog
7:20 AM 44.6 °F - 44.6 °F 100% 30.09 in 0.5 mi Calm Calm - N/A Fog Fog
7:50 AM 44.6 °F - 44.6 °F 100% 30.09 in 3.1 mi Calm Calm - N/A   Mostly Cloudy
8:00 AM 45 °F - 44 °F 94% 30.11 in 1 mi Calm Calm - -   Mist
8:20 AM 44.6 °F - 44.6 °F 100% 30.09 in 5.0 mi Calm Calm - N/A   Mostly Cloudy
8:50 AM 46.4 °F - 44.6 °F 93% 30.09 in 6.2 mi Calm Calm - N/A   Mostly Cloudy
9:20 AM 48.2 °F - 46.4 °F 93% 30.09 in 6.2 mi Calm Calm - N/A   Mostly Cloudy
9:50 AM 50.0 °F - 48.2 °F 94% 30.12 in 6.2 mi Calm Calm - N/A   Mostly Cloudy
10:20 AM 50.0 °F - 48.2 °F 94% 30.12 in 6.2 mi Calm Calm - N/A   Mostly Cloudy
10:50 AM 55.4 °F - 53.6 °F 94% 30.12 in 6.2 mi Calm Calm - N/A   Mostly Cloudy
11:00 AM 55 °F - 53 °F 92% 30.15 in 6 mi Calm Calm - -   Scattered Clouds
11:20 AM 55.4 °F - 53.6 °F 94% 30.12 in 6.2 mi NW 4.6 mph - N/A   Mostly Cloudy
11:50 AM 59.0 °F - 55.4 °F 88% 30.12 in 6.2 mi Calm Calm - N/A   Mostly Cloudy
12:20 PM 59.0 °F - 55.4 °F 88% 30.12 in 6.2 mi Calm Calm - N/A   Mostly Cloudy
12:50 PM 60.8 °F - 53.6 °F 77% 30.09 in 6.2 mi East 4.6 mph - N/A   Mostly Cloudy
1:20 PM 60.8 °F - 53.6 °F 77% 30.09 in 6.2 mi ESE 4.6 mph - N/A   Mostly Cloudy
1:50 PM 62.6 °F - 55.4 °F 77% 30.09 in 6.2 mi SSE 4.6 mph - N/A   Scattered Clouds
2:00 PM 62 °F - 54 °F 69% 30.11 in 12 mi SSE 4.6 mph - -   Scattered Clouds
2:20 PM 62.6 °F - 55.4 °F 77% 30.09 in 6.2 mi East 4.6 mph - N/A   Scattered Clouds
2:50 PM 62.6 °F - 55.4 °F 77% 30.09 in 6.2 mi SSE 4.6 mph - N/A   Scattered Clouds
3:20 PM 62.6 °F - 55.4 °F 77% 30.09 in 6.2 mi SSE 4.6 mph - N/A   Scattered Clouds
3:50 PM 62.6 °F - 55.4 °F 77% 30.09 in 6.2 mi South 4.6 mph - N/A   Scattered Clouds
4:20 PM 60.8 °F - 55.4 °F 82% 30.09 in 6.2 mi Calm Calm - N/A   Scattered Clouds
4:50 PM 59.0 °F - 53.6 °F 82% 30.09 in 6.2 mi Calm Calm - N/A   Scattered Clouds
5:00 PM 59 °F - 53 °F 76% 30.10 in 12 mi Calm Calm - -   Scattered Clouds
5:20 PM 59.0 °F - 53.6 °F 82% 30.09 in 6.2 mi Calm Calm - N/A   Scattered Clouds
5:50 PM 55.4 °F - 53.6 °F 94% 30.09 in 6.2 mi Calm Calm - N/A   Scattered Clouds
6:20 PM 55.4 °F - 53.6 °F 94% 30.09 in 6.2 mi Calm Calm - N/A   Scattered Clouds
6:50 PM 53.6 °F - 51.8 °F 94% 30.09 in 6.2 mi Calm Calm - N/A   Scattered Clouds
7:20 PM 53.6 °F - 51.8 °F 94% 30.09 in 6.2 mi Calm Calm - N/A   Scattered Clouds
7:50 PM 51.8 °F - 50.0 °F 94% 30.09 in 6.2 mi Calm Calm - N/A   Scattered Clouds
8:00 PM 51 °F - 50 °F 97% 30.12 in 6 mi Calm Calm - -   Partly Cloudy
8:20 PM 51.8 °F - 50.0 °F 94% 30.09 in 6.2 mi Calm Calm - N/A   Scattered Clouds
8:50 PM 50.0 °F - 48.2 °F 94% 30.09 in 6.2 mi Calm Calm - N/A   Scattered Clouds
9:20 PM 50.0 °F - 48.2 °F 94% 30.09 in 6.2 mi Calm Calm - N/A   Scattered Clouds
9:50 PM 50.0 °F - 50.0 °F 100% 30.12 in 6.2 mi Calm Calm - N/A   Scattered Clouds
10:20 PM 50.0 °F - 50.0 °F 100% 30.12 in 6.2 mi Calm Calm - N/A   Scattered Clouds
10:50 PM 50.0 °F - 50.0 °F 100% 30.12 in 6.2 mi Calm Calm - N/A   Mostly Cloudy
11:00 PM 50 °F - 50 °F 98% 30.14 in 6 mi Calm Calm - -   Partly Cloudy
11:20 PM 50.0 °F - 50.0 °F 100% 30.12 in 6.2 mi Calm Calm - N/A   Mostly Cloudy
11:50 PM 50.0 °F - 48.2 °F 94% 30.12 in 5.0 mi Calm Calm - N/A   Mostly Cloudy